SCP
0 0 0 0 0 -0 -0 -0 0 0 0 0 0 0 0 0 0 0 0 0 0 0 0 0 0 0 0 0 0 0 0 0 0 0 0 0 0 0 0 0 0 0 0 0 -0
0 0 0 0 0 0 -0 0 0 0 0 0 0 0 0 0 0 0 0 0 0 0 0 0 0 0 0 0 0 0 0 0 0 0 0 0 0 0 0 0 0 0 0 -0 -0
0 0 0 0 0 0 -0 -0 0 0 0 0 0 0 0 0 0 0 0 0 0 0 0 0 0 0 0 0 0 0 0 0 0 0 0 0 0 0 0 0 0 0 0 -0 -0
0 0 0 0 0 0 0 -0 -0 0 0 0 0 0 0 0 0 0 0 0 0 0 0 0 0 0 0 0 0 0 0 0 0 0 0 0 0 0 0 0 0 0 0 0 -0
0 0 0 0 0 0 0 -0 -0 0 0 0 0 0 0 0 0 0 0 0 0 0 0 0 0 0 0 0 0 0 0 0 0 0 0 0 0 0 0 0 0 0 0 0 0
0 0 0 0 0 0 0 -0 -0 0 0 0 0 0 0 0 0 0 0 0 0 0 0 0 0 0 0 0 0 0 0 0 0 0 0 0 0 0 0 0 0 0 0 0 0
0 0 0 0 0 -0 0 -0 -0 0 0 0 0 0 0 0 0 0 0 0 0 0 0 0 0 0 0 0 0 0 0 0 0 0 0 0 0 0 -0 0 0 0 0 0 0
0 0 0 0 -0 0 0 -0 -0 0 0 0 0 0 0 0 0 0 0 0 0 0 0 0 0 0 0 0 0 0 0 0 0 0 0 0 0 0 -0 -0 0 0 0 0 0
0 0 0 0 0 0 0 -0 -0 0 0 0 0 0 0 0 0 0 0 0 0 0 0 0 0 0 0 0 0 0 0 0 0 0 0 0 0 0 0 -0 -0 0 0 0 0
0 0 0 0 0 0 -0 -0 -0 0 0 1 0 0 0 0 0 0 0 0 0 0 0 0 0 0 0 0 0 0 0 0 0 0 0 0 0 0 0 0 0 -0 0 0 0
0 0 0 0 0 0 -0 0 -0 0 0 0 0 0 0 0 0 0 0 0 0 0 0 0 0 0 0 0 0 0 0 0 0 0 0 0 0 0 0 0 0 0 0 0 -0
0 0 0 0 0 0 0 0 -0 0 0 0 0 0 0 0 0 0 0 0 0 0 0 0 0 0 0 0 0 0 0 0 0 0 0 0 0 0 0 0 0 0 0 0 0
0 0 0 0 0 0 0 -0 0 0 0 0 0 0 0 0 0 0 0 0 0 0 0 0 0 0 0 0 0 0 0 0 0 0 0 0 -0 -0 0 0 0 0 0 -0 -0
0 0 0 0 -0 0 0 0 0 0 0 0 0 0 0 0 0 0 0 0 0 0 0 0 0 0 0 0 0 0 0 0 0 0 0 0 0 0 0 0 0 0 0 0 0
0 -0 -0 -0 0 0 0 0 0 0 0 0 0 0 0 0 0 0 0 0 0 0 0 0 0 0 0 0 0 0 0 0 0 0 0 0 0 -0 0 0 0 0 0 0 0
0 -0 -0 -0 0 0 0 0 0 0 0 0 0 0 0 0 0 0 0 0 0 0 0 0 0 0 0 0 0 0 0 0 0 0 0 0 0 0 0 0 0 0 0 0 0
0 -0 -0 -0 0 0 0 0 0 0 0 0 0 0 0 0 0 0 0 0 0 0 0 0 0 0 0 0 0 0 0 0 0 0 0 0 0 0 0 0 0 0 0 0 0
-0 -0 -0 -0 0 0 0 0 0 0 0 0 0 0 0 0 0 0 0 0 0 0 0 0 0 0 0 0 0 0 0 0 0 0 0 0 0 0 0 0 0 0 0 0 0
0 0 -0 -0 0 0 0 0 0 0 0 0 0 0 0 0 0 0 0 0 0 0 0 0 0 0 0 0 0 0 0 0 0 0 0 0 0 0 0 0 0 0 0 0 0
0 -0 -0 -0 0 0 0 0 0 0 0 0 0 0 0 0 0 0 0 0 0 0 0 0 0 0 0 0 0 0 0 0 0 0 0 0 0 0 0 0 0 0 0 0 0
0 -0 -0 -0 0 0 0 0 0 0 0 0 0 0 0 0 0 0 0 0 0 0 0 0 0 0 0 0 0 0 0 0 0 0 0 0 0 0 -0 -0 -0 0 0 0 0
0 -0 -0 -0 0 0 0 0 0 0 0 0 0 0 0 0 0 0 0 0 0 0 0 0 0 0 0 0 0 0 0 0 0 0 0 0 0 0 0 0 0 0 0 0 0
0 -0 -0 0 0 0 0 0 0 0 0 0 0 0 0 0 0 0 0 0 0 0 0 0 0 0 0 0 0 0 0 0 0 0 0 0 0 0 0 0 0 0 0 0 0
0 -0 -0 0 0 0 0 0 0 0 0 0 0 0 0 0 0 0 0 0 0 0 0 0 0 0 0 0 0 0 0 0 0 0 0 0 0 0 0 0 0 0 0 0 0
0 -0 0 0 0 0 0 0 0 0 0 0 0 0 0 0 0 0 0 0 0 0 0 0 0 0 0 0 0 0 0 0 0 0 0 0 0 0 0 0 0 0 0 0 0
0 -0 0 0 0 0 0 0 0 0 0 0 0 0 0 0 0 0 0 0 0 0 0 0 0 0 0 0 0 0 0 0 0 0 0 0 0 -0 0 0 0 0 0 0 0
0 0 0 0 0 0 0 0 0 0 0 0 0 0 0 0 0 0 0 0 0 0 0 0 0 0 0 0 0 0 0 0 0 0 0 0 -0 0 0 0 0 0 0 0 0
Wind_Speed_500mb
58 56 64 65 66 68 76 87 71 75 68 72 68 65 66 71 66 69 71 60 58 26 42 36 33 28 24 11 9 8 10 17 14 4 10 18 16 4 2 9 7 10 3 15 38
53 53 64 67 66 70 83 103 90 78 71 80 68 70 53 77 75 78 76 66 60 45 44 44 36 26 17 15 13 21 18 20 3 15 10 20 15 12 10 12 12 14 5 25 37
54 44 57 66 66 69 81 93 98 77 81 82 75 71 57 59 45 53 78 61 58 56 35 38 32 23 14 15 24 17 21 8 7 10 12 13 17 9 12 12 10 15 21 31 38
56 49 50 60 67 68 75 101 101 73 87 84 82 73 61 66 24 56 79 65 61 56 42 39 41 26 10 20 31 16 31 10 15 13 13 15 11 10 11 1 7 3 22 36 40
53 57 52 55 68 63 63 91 103 79 91 88 84 82 75 37 25 33 73 67 58 60 57 52 55 33 29 20 25 23 15 16 14 14 10 11 9 3 15 11 9 6 21 33 37
60 59 62 62 65 72 70 88 85 93 92 95 90 87 75 32 38 32 63 71 65 63 55 54 39 30 32 29 29 21 14 19 18 17 12 10 19 5 17 14 7 7 20 27 35
67 61 64 69 64 77 74 81 112 90 98 99 102 91 63 66 49 44 66 65 68 61 61 47 24 28 21 14 11 8 19 14 19 20 11 12 30 25 36 22 18 16 19 26 31
66 65 67 64 64 74 76 85 111 91 110 105 109 82 29 77 43 42 66 61 62 48 45 47 33 42 24 19 15 20 17 17 24 25 13 14 34 26 44 35 31 23 20 27 34
64 69 67 65 64 72 80 98 97 91 107 112 96 77 25 60 56 57 59 66 59 45 37 41 35 22 17 24 17 25 20 32 21 26 13 24 20 19 18 26 33 33 30 29 32
67 66 66 66 75 84 79 102 94 94 105 105 106 53 34 64 74 62 75 77 45 55 28 28 9 9 22 29 32 28 31 29 35 21 21 27 32 24 18 12 20 32 38 34 34
67 67 65 71 81 79 78 101 100 80 123 87 77 62 66 67 66 61 60 62 53 26 14 26 17 28 37 35 32 29 30 38 20 12 10 27 35 31 33 32 36 38 38 32 36
62 66 70 69 74 72 94 116 124 69 90 100 78 85 83 95 48 69 73 48 60 43 36 20 35 39 41 36 33 22 27 27 7 9 8 26 43 37 41 43 45 45 46 47 45
56 62 65 72 83 72 110 143 123 88 31 47 85 74 95 99 70 89 93 45 50 49 44 37 24 38 39 38 39 34 33 29 20 11 18 21 41 48 37 52 49 47 51 55 58
50 51 58 69 72 70 121 127 99 100 17 26 45 37 71 70 34 82 85 52 22 48 47 28 24 43 43 43 35 30 25 8 12 9 17 5 15 27 9 13 25 37 49 59 58
47 48 63 53 33 80 126 115 119 59 23 34 23 62 69 75 70 57 82 39 47 40 24 29 37 36 41 46 36 28 24 22 15 15 19 27 16 13 30 31 25 36 40 45 50
39 46 55 41 50 48 106 130 112 20 25 14 20 26 48 43 55 53 29 27 53 33 32 17 22 28 35 28 32 25 24 13 4 8 17 30 27 20 25 28 23 26 18 24 36
40 47 45 41 41 26 119 111 34 30 18 15 20 26 50 49 33 39 40 25 26 30 34 16 25 8 14 37 26 30 34 7 4 7 16 6 18 32 15 19 11 16 17 17 19
37 29 38 60 54 38 139 43 35 23 21 15 35 48 33 59 45 47 50 29 30 34 34 26 14 30 28 45 24 40 32 12 16 15 15 4 20 9 13 15 24 33 33 28 31
33 24 38 53 44 51 81 38 22 32 19 34 53 44 19 47 29 38 38 47 41 42 28 35 18 37 36 20 30 18 20 5 9 4 3 14 22 27 29 27 29 31 35 34 22
36 16 18 51 37 45 40 27 12 34 45 59 42 23 26 30 41 49 49 50 44 38 17 21 15 26 10 12 6 26 28 9 4 12 14 20 29 25 8 14 20 23 28 23 18
29 4 15 31 21 21 32 9 14 44 65 52 54 38 47 68 52 70 74 46 59 50 19 32 14 17 17 15 26 10 26 7 11 12 11 11 18 18 22 22 27 22 4 5 3
13 2 9 38 5 2 17 23 33 52 76 24 33 44 61 63 39 39 45 33 77 49 36 8 12 16 34 4 6 30 32 27 15 16 18 15 22 7 10 13 11 4 1 11 22
11 6 10 26 6 4 13 22 30 61 58 41 39 28 53 51 24 26 40 23 75 52 44 19 12 16 18 10 9 34 34 41 30 7 13 12 19 11 25 16 15 13 12 13 20
11 3 4 6 8 7 10 22 27 64 34 44 38 32 53 43 28 36 34 21 68 61 44 28 8 14 20 13 26 31 46 38 36 10 33 28 48 37 18 15 14 20 29 36 38
4 1 5 2 5 5 2 28 52 34 10 28 23 48 63 37 28 33 42 31 41 51 19 18 11 9 12 7 27 25 37 41 39 55 33 44 42 63 42 22 30 26 25 30 46
5 6 3 5 10 12 7 19 56 30 36 34 38 58 52 43 30 61 46 45 42 37 34 21 5 11 6 14 10 4 37 44 56 55 47 47 40 69 25 32 39 34 31 39 45
7 15 3 4 2 7 5 10 46 34 18 19 49 57 45 39 37 48 49 38 40 43 37 27 11 8 10 11 7 9 43 47 53 57 50 45 71 32 39 27 40 41 46 50 49
Wind_Direction_500mb
248 243 242 241 239 239 241 238 228 229 232 225 222 224 220 216 214 217 220 220 218 212 194 202 195 190 177 188 185 209 238 213 203 200 129 159 177 154 205 137 164 174 99 121 181
247 251 243 240 235 243 242 238 239 221 226 222 222 222 220 211 210 214 216 218 215 210 190 186 181 176 181 201 203 211 227 236 271 167 153 167 190 155 198 173 192 180 138 150 174
245 256 246 240 231 233 238 234 236 213 224 220 217 220 216 219 199 217 211 217 217 206 197 192 175 170 158 206 199 203 230 255 152 151 133 147 163 167 226 208 211 199 177 169 177
243 246 244 239 227 232 239 241 234 210 222 221 220 214 211 197 203 230 209 207 210 199 184 173 175 166 142 196 198 204 221 256 151 140 160 164 142 177 213 111 71 37 186 181 192
245 239 242 240 233 235 236 237 248 221 220 221 216 208 205 186 220 204 205 195 192 191 184 179 179 163 195 202 180 216 190 197 172 154 170 156 181 217 239 229 240 230 185 196 198
241 241 235 236 233 238 237 238 242 231 214 218 212 203 191 205 213 197 183 186 185 181 182 183 194 173 197 185 200 195 168 177 164 177 207 238 236 199 222 191 197 223 204 208 207
240 238 239 237 237 235 229 235 236 237 210 213 204 192 188 201 196 178 180 182 189 179 175 179 186 178 168 169 139 143 187 195 187 198 228 225 251 226 243 245 258 219 202 210 213
242 232 238 237 239 233 237 229 231 227 204 208 209 184 189 205 211 192 185 185 181 176 175 188 171 193 199 153 160 199 231 215 200 196 192 184 256 240 238 235 245 244 219 209 213
239 229 239 235 236 230 233 226 229 231 199 205 194 178 175 184 193 194 191 189 181 182 178 179 194 181 167 173 170 208 220 219 208 203 200 208 268 237 249 236 249 249 245 228 220
228 230 235 242 236 246 252 222 221 232 193 201 188 176 165 176 176 182 187 184 161 178 152 183 149 193 210 200 200 191 220 230 227 178 219 228 246 252 235 230 250 252 247 241 229
220 234 236 240 243 241 234 211 215 222 183 190 177 188 174 165 160 171 168 177 179 166 144 207 177 192 205 212 223 220 212 236 216 148 250 240 256 249 250 238 243 251 252 245 236
234 232 243 246 241 249 213 209 212 204 179 207 186 186 166 159 152 166 162 157 166 180 182 169 216 193 196 200 214 235 231 225 190 136 245 276 275 267 254 251 249 248 249 251 250
228 234 247 253 251 264 204 209 206 204 178 206 184 173 160 168 166 167 169 166 179 171 190 194 186 192 197 197 202 211 216 223 231 171 229 275 272 272 250 247 247 242 246 244 244
226 236 254 263 266 215 204 201 190 171 188 178 181 177 163 161 157 167 176 152 170 190 185 219 210 202 195 197 197 206 219 228 210 265 267 65 286 292 287 245 234 236 240 244 242
229 249 264 254 256 216 195 191 177 176 193 167 138 163 174 162 139 178 174 185 178 167 166 183 183 188 198 190 193 223 170 203 224 247 286 257 274 279 245 251 247 252 245 244 244
240 261 262 267 253 259 191 177 174 201 203 159 136 164 175 134 158 154 158 164 182 162 194 141 179 183 206 191 195 142 141 129 175 266 259 250 238 265 251 255 256 239 261 262 249
244 259 254 257 241 178 181 165 176 208 137 172 143 168 164 152 131 154 163 163 158 157 184 130 174 126 203 168 179 167 161 145 162 201 248 1 235 239 291 305 252 259 244 275 261
259 207 259 271 256 310 170 176 200 153 150 171 147 158 160 154 153 164 160 172 175 177 165 164 191 183 182 172 181 190 180 174 197 208 245 120 236 250 216 276 256 237 264 274 250
193 217 228 265 263 285 183 189 179 147 149 144 140 152 148 155 139 160 180 177 191 185 164 180 164 159 180 176 152 177 202 288 100 34 301 230 253 268 243 239 247 249 261 264 266
179 228 271 288 277 272 182 171 138 145 152 149 147 159 154 145 143 165 172 200 186 199 167 155 128 185 150 122 13 183 158 121 220 202 240 250 253 254 191 250 238 239 254 266 246
194 196 301 293 268 248 182 133 140 162 149 160 155 149 164 160 163 176 183 179 191 187 205 167 122 173 140 200 173 181 179 209 185 232 230 263 245 253 234 236 238 252 181 16 16
201 253 312 327 277 331 148 140 145 162 167 169 172 156 166 165 166 170 179 189 180 165 169 142 103 158 188 121 191 188 184 180 186 192 241 277 265 202 187 205 190 5 351 336 308
159 147 210 321 272 160 120 141 157 161 170 156 169 172 163 165 151 184 172 176 165 168 162 163 140 118 175 255 203 214 208 206 222 29 190 196 261 237 197 163 216 307 312 340 321
166 158 268 246 279 360 146 149 143 166 152 165 160 154 158 171 126 182 153 159 165 175 157 140 157 158 185 186 154 197 205 207 210 195 227 217 252 256 221 190 217 262 284 301 301
90 115 173 4 20 330 342 158 149 158 143 148 156 166 161 152 147 162 145 147 169 178 142 155 150 151 75 136 165 194 196 202 208 224 218 237 235 259 248 272 291 305 299 285 280
163 181 144 43 6 332 357 177 153 156 154 167 163 163 163 170 176 165 155 160 167 173 176 187 149 121 107 128 128 153 203 209 214 225 231 248 252 248 277 279 276 275 274 266 270
142 131 112 72 95 314 349 155 160 149 199 164 162 156 171 176 130 145 149 140 151 164 177 177 132 116 189 146 111 285 224 211 217 221 220 231 239 268 273 266 265 271 263 263 267
Wind_Speed_850mb
58 56 64 65 66 68 76 87 71 75 68 72 68 65 66 71 66 69 71 60 58 26 42 36 33 28 24 11 9 8 10 17 14 4 10 18 16 4 2 9 7 10 3 15 38
53 53 64 67 66 70 83 103 90 78 71 80 68 70 53 77 75 78 76 66 60 45 44 44 36 26 17 15 13 21 18 20 3 15 10 20 15 12 10 12 12 14 5 25 37
54 44 57 66 66 69 81 93 98 77 81 82 75 71 57 59 45 53 78 61 58 56 35 38 32 23 14 15 24 17 21 8 7 10 12 13 17 9 12 12 10 15 21 31 38
56 49 50 60 67 68 75 101 101 73 87 84 82 73 61 66 24 56 79 65 61 56 42 39 41 26 10 20 31 16 31 10 15 13 13 15 11 10 11 1 7 3 22 36 40
53 57 52 55 68 63 63 91 103 79 91 88 84 82 75 37 25 33 73 67 58 60 57 52 55 33 29 20 25 23 15 16 14 14 10 11 9 3 15 11 9 6 21 33 37
60 59 62 62 65 72 70 88 85 93 92 95 90 87 75 32 38 32 63 71 65 63 55 54 39 30 32 29 29 21 14 19 18 17 12 10 19 5 17 14 7 7 20 27 35
67 61 64 69 64 77 74 81 112 90 98 99 102 91 63 66 49 44 66 65 68 61 61 47 24 28 21 14 11 8 19 14 19 20 11 12 30 25 36 22 18 16 19 26 31
66 65 67 64 64 74 76 85 111 91 110 105 109 82 29 77 43 42 66 61 62 48 45 47 33 42 24 19 15 20 17 17 24 25 13 14 34 26 44 35 31 23 20 27 34
64 69 67 65 64 72 80 98 97 91 107 112 96 77 25 60 56 57 59 66 59 45 37 41 35 22 17 24 17 25 20 32 21 26 13 24 20 19 18 26 33 33 30 29 32
67 66 66 66 75 84 79 102 94 94 105 105 106 53 34 64 74 62 75 77 45 55 28 28 9 9 22 29 32 28 31 29 35 21 21 27 32 24 18 12 20 32 38 34 34
67 67 65 71 81 79 78 101 100 80 123 87 77 62 66 67 66 61 60 62 53 26 14 26 17 28 37 35 32 29 30 38 20 12 10 27 35 31 33 32 36 38 38 32 36
62 66 70 69 74 72 94 116 124 69 90 100 78 85 83 95 48 69 73 48 60 43 36 20 35 39 41 36 33 22 27 27 7 9 8 26 43 37 41 43 45 45 46 47 45
56 62 65 72 83 72 110 143 123 88 31 47 85 74 95 99 70 89 93 45 50 49 44 37 24 38 39 38 39 34 33 29 20 11 18 21 41 48 37 52 49 47 51 55 58
50 51 58 69 72 70 121 127 99 100 17 26 45 37 71 70 34 82 85 52 22 48 47 28 24 43 43 43 35 30 25 8 12 9 17 5 15 27 9 13 25 37 49 59 58
47 48 63 53 33 80 126 115 119 59 23 34 23 62 69 75 70 57 82 39 47 40 24 29 37 36 41 46 36 28 24 22 15 15 19 27 16 13 30 31 25 36 40 45 50
39 46 55 41 50 48 106 130 112 20 25 14 20 26 48 43 55 53 29 27 53 33 32 17 22 28 35 28 32 25 24 13 4 8 17 30 27 20 25 28 23 26 18 24 36
40 47 45 41 41 26 119 111 34 30 18 15 20 26 50 49 33 39 40 25 26 30 34 16 25 8 14 37 26 30 34 7 4 7 16 6 18 32 15 19 11 16 17 17 19
37 29 38 60 54 38 139 43 35 23 21 15 35 48 33 59 45 47 50 29 30 34 34 26 14 30 28 45 24 40 32 12 16 15 15 4 20 9 13 15 24 33 33 28 31
33 24 38 53 44 51 81 38 22 32 19 34 53 44 19 47 29 38 38 47 41 42 28 35 18 37 36 20 30 18 20 5 9 4 3 14 22 27 29 27 29 31 35 34 22
36 16 18 51 37 45 40 27 12 34 45 59 42 23 26 30 41 49 49 50 44 38 17 21 15 26 10 12 6 26 28 9 4 12 14 20 29 25 8 14 20 23 28 23 18
29 4 15 31 21 21 32 9 14 44 65 52 54 38 47 68 52 70 74 46 59 50 19 32 14 17 17 15 26 10 26 7 11 12 11 11 18 18 22 22 27 22 4 5 3
13 2 9 38 5 2 17 23 33 52 76 24 33 44 61 63 39 39 45 33 77 49 36 8 12 16 34 4 6 30 32 27 15 16 18 15 22 7 10 13 11 4 1 11 22
11 6 10 26 6 4 13 22 30 61 58 41 39 28 53 51 24 26 40 23 75 52 44 19 12 16 18 10 9 34 34 41 30 7 13 12 19 11 25 16 15 13 12 13 20
11 3 4 6 8 7 10 22 27 64 34 44 38 32 53 43 28 36 34 21 68 61 44 28 8 14 20 13 26 31 46 38 36 10 33 28 48 37 18 15 14 20 29 36 38
4 1 5 2 5 5 2 28 52 34 10 28 23 48 63 37 28 33 42 31 41 51 19 18 11 9 12 7 27 25 37 41 39 55 33 44 42 63 42 22 30 26 25 30 46
5 6 3 5 10 12 7 19 56 30 36 34 38 58 52 43 30 61 46 45 42 37 34 21 5 11 6 14 10 4 37 44 56 55 47 47 40 69 25 32 39 34 31 39 45
7 15 3 4 2 7 5 10 46 34 18 19 49 57 45 39 37 48 49 38 40 43 37 27 11 8 10 11 7 9 43 47 53 57 50 45 71 32 39 27 40 41 46 50 49
Wind_Direction_850mb
248 243 242 241 239 239 241 238 228 229 232 225 222 224 220 216 214 217 220 220 218 212 194 202 195 190 177 188 185 209 238 213 203 200 129 159 177 154 205 137 164 174 99 121 181
247 251 243 240 235 243 242 238 239 221 226 222 222 222 220 211 210 214 216 218 215 210 190 186 181 176 181 201 203 211 227 236 271 167 153 167 190 155 198 173 192 180 138 150 174
245 256 246 240 231 233 238 234 236 213 224 220 217 220 216 219 199 217 211 217 217 206 197 192 175 170 158 206 199 203 230 255 152 151 133 147 163 167 226 208 211 199 177 169 177
243 246 244 239 227 232 239 241 234 210 222 221 220 214 211 197 203 230 209 207 210 199 184 173 175 166 142 196 198 204 221 256 151 140 160 164 142 177 213 111 71 37 186 181 192
245 239 242 240 233 235 236 237 248 221 220 221 216 208 205 186 220 204 205 195 192 191 184 179 179 163 195 202 180 216 190 197 172 154 170 156 181 217 239 229 240 230 185 196 198
241 241 235 236 233 238 237 238 242 231 214 218 212 203 191 205 213 197 183 186 185 181 182 183 194 173 197 185 200 195 168 177 164 177 207 238 236 199 222 191 197 223 204 208 207
240 238 239 237 237 235 229 235 236 237 210 213 204 192 188 201 196 178 180 182 189 179 175 179 186 178 168 169 139 143 187 195 187 198 228 225 251 226 243 245 258 219 202 210 213
242 232 238 237 239 233 237 229 231 227 204 208 209 184 189 205 211 192 185 185 181 176 175 188 171 193 199 153 160 199 231 215 200 196 192 184 256 240 238 235 245 244 219 209 213
239 229 239 235 236 230 233 226 229 231 199 205 194 178 175 184 193 194 191 189 181 182 178 179 194 181 167 173 170 208 220 219 208 203 200 208 268 237 249 236 249 249 245 228 220
228 230 235 242 236 246 252 222 221 232 193 201 188 176 165 176 176 182 187 184 161 178 152 183 149 193 210 200 200 191 220 230 227 178 219 228 246 252 235 230 250 252 247 241 229
220 234 236 240 243 241 234 211 215 222 183 190 177 188 174 165 160 171 168 177 179 166 144 207 177 192 205 212 223 220 212 236 216 148 250 240 256 249 250 238 243 251 252 245 236
234 232 243 246 241 249 213 209 212 204 179 207 186 186 166 159 152 166 162 157 166 180 182 169 216 193 196 200 214 235 231 225 190 136 245 276 275 267 254 251 249 248 249 251 250
228 234 247 253 251 264 204 209 206 204 178 206 184 173 160 168 166 167 169 166 179 171 190 194 186 192 197 197 202 211 216 223 231 171 229 275 272 272 250 247 247 242 246 244 244
226 236 254 263 266 215 204 201 190 171 188 178 181 177 163 161 157 167 176 152 170 190 185 219 210 202 195 197 197 206 219 228 210 265 267 65 286 292 287 245 234 236 240 244 242
229 249 264 254 256 216 195 191 177 176 193 167 138 163 174 162 139 178 174 185 178 167 166 183 183 188 198 190 193 223 170 203 224 247 286 257 274 279 245 251 247 252 245 244 244
240 261 262 267 253 259 191 177 174 201 203 159 136 164 175 134 158 154 158 164 182 162 194 141 179 183 206 191 195 142 141 129 175 266 259 250 238 265 251 255 256 239 261 262 249
244 259 254 257 241 178 181 165 176 208 137 172 143 168 164 152 131 154 163 163 158 157 184 130 174 126 203 168 179 167 161 145 162 201 248 1 235 239 291 305 252 259 244 275 261
259 207 259 271 256 310 170 176 200 153 150 171 147 158 160 154 153 164 160 172 175 177 165 164 191 183 182 172 181 190 180 174 197 208 245 120 236 250 216 276 256 237 264 274 250
193 217 228 265 263 285 183 189 179 147 149 144 140 152 148 155 139 160 180 177 191 185 164 180 164 159 180 176 152 177 202 288 100 34 301 230 253 268 243 239 247 249 261 264 266
179 228 271 288 277 272 182 171 138 145 152 149 147 159 154 145 143 165 172 200 186 199 167 155 128 185 150 122 13 183 158 121 220 202 240 250 253 254 191 250 238 239 254 266 246
194 196 301 293 268 248 182 133 140 162 149 160 155 149 164 160 163 176 183 179 191 187 205 167 122 173 140 200 173 181 179 209 185 232 230 263 245 253 234 236 238 252 181 16 16
201 253 312 327 277 331 148 140 145 162 167 169 172 156 166 165 166 170 179 189 180 165 169 142 103 158 188 121 191 188 184 180 186 192 241 277 265 202 187 205 190 5 351 336 308
159 147 210 321 272 160 120 141 157 161 170 156 169 172 163 165 151 184 172 176 165 168 162 163 140 118 175 255 203 214 208 206 222 29 190 196 261 237 197 163 216 307 312 340 321
166 158 268 246 279 360 146 149 143 166 152 165 160 154 158 171 126 182 153 159 165 175 157 140 157 158 185 186 154 197 205 207 210 195 227 217 252 256 221 190 217 262 284 301 301
90 115 173 4 20 330 342 158 149 158 143 148 156 166 161 152 147 162 145 147 169 178 142 155 150 151 75 136 165 194 196 202 208 224 218 237 235 259 248 272 291 305 299 285 280
163 181 144 43 6 332 357 177 153 156 154 167 163 163 163 170 176 165 155 160 167 173 176 187 149 121 107 128 128 153 203 209 214 225 231 248 252 248 277 279 276 275 274 266 270
142 131 112 72 95 314 349 155 160 149 199 164 162 156 171 176 130 145 149 140 151 164 177 177 132 116 189 146 111 285 224 211 217 221 220 231 239 268 273 266 265 271 263 263 267